RH
5 5 5 5 5 5 5 6 6 8 9 10 11 11 11 10 10 10 8 8 6 5 6 7 8 8 8 11 13 16 17 18 18 17 19 22 24 25 26 27 29 30 30 30 31 31 30 30 28 27 26 25 26 27 31 33 36 40 43 45 45 45 45 44 43 42 41 41 40 39 36 32 29 24 21 19 17 16 15 15 15 15 15 15 14 12
5 5 5 5 5 5 5 6 6 8 10 11 11 12 11 10 11 11 9 8 6 5 6 7 10 12 11 13 16 17 20 20 19 19 22 26 26 26 27 29 31 31 31 31 30 29 27 26 24 24 24 24 26 28 32 35 38 44 48 49 48 47 47 46 44 43 42 42 41 37 34 29 24 21 18 17 16 16 16 16 16 17 16 15 14 12
5 5 5 5 5 5 6 6 7 9 10 11 12 12 12 11 10 11 10 8 5 4 5 7 11 15 14 17 19 19 22 22 20 23 28 29 27 26 29 31 32 32 32 31 28 26 23 22 21 21 23 24 26 29 31 35 39 45 49 50 50 49 47 46 45 45 44 42 39 34 29 24 20 18 16 16 16 17 17 18 18 18 18 15 13 12
6 6 6 6 6 6 6 6 8 10 11 12 12 12 12 12 11 10 9 8 7 6 6 7 11 15 18 20 21 22 24 23 22 26 30 31 28 28 30 30 30 31 31 30 27 25 22 21 20 20 21 24 26 30 33 36 42 47 51 52 52 51 49 49 49 47 45 41 36 30 24 20 17 16 17 17 17 19 19 19 20 19 17 16 13 10
6 6 6 6 6 6 6 7 9 11 12 13 13 13 13 13 12 10 8 7 7 8 8 9 10 15 20 23 23 23 26 26 25 28 30 30 29 29 29 28 29 30 30 30 28 25 23 21 20 20 22 25 28 32 36 41 47 51 54 54 54 54 54 55 52 47 43 37 31 26 22 18 17 17 18 19 19 20 21 21 20 20 17 16 13 8
7 7 7 7 7 7 7 8 10 12 13 14 14 14 14 13 12 10 8 6 7 9 11 12 12 14 21 28 27 25 28 28 26 28 29 28 28 29 29 29 31 30 28 27 25 22 21 20 21 22 25 29 33 37 42 47 52 55 56 56 56 58 59 58 52 44 38 32 27 24 21 19 18 20 19 20 22 21 23 22 20 20 17 15 12 8
8 8 8 7 7 7 8 10 11 13 14 15 15 15 14 13 11 10 8 8 8 10 12 15 16 14 21 33 34 27 30 30 27 29 29 28 29 29 31 33 32 29 25 24 21 19 19 20 24 27 30 35 38 43 48 53 57 58 59 59 60 62 62 58 48 39 32 27 25 22 20 20 19 21 21 21 24 23 23 23 21 20 18 16 12 8
8 9 8 8 8 8 10 11 13 14 14 15 16 15 14 13 11 9 9 10 10 12 15 16 18 16 20 35 39 33 33 31 28 29 28 28 31 32 34 33 30 27 24 23 20 19 20 22 27 31 35 39 42 47 53 57 59 59 60 60 62 64 63 57 46 36 29 24 23 21 19 20 20 22 24 25 26 25 24 23 21 20 17 16 12 9
9 9 8 8 9 9 11 13 14 16 15 16 15 14 13 10 10 9 9 12 11 14 18 16 19 19 19 36 43 37 38 35 30 29 27 29 32 32 32 30 29 29 25 22 21 20 21 25 30 35 39 42 47 53 58 61 61 60 61 61 64 65 62 56 46 35 28 23 22 22 20 21 23 25 27 28 28 26 26 24 22 20 17 15 12 10
9 9 9 9 9 11 14 15 16 16 16 16 14 13 11 9 9 9 10 13 13 17 20 17 21 18 18 38 44 38 42 43 35 30 27 31 32 30 30 29 31 32 27 22 21 21 23 27 33 38 41 45 52 60 64 66 66 64 64 65 67 66 61 54 44 33 27 24 24 23 24 25 27 29 30 30 30 28 27 26 23 21 17 15 12 10
9 9 9 10 12 14 16 17 17 17 16 15 13 11 9 8 9 10 12 15 16 18 19 19 21 18 21 38 44 43 49 48 40 34 31 33 35 34 32 31 33 33 26 22 21 22 24 30 36 39 43 49 57 66 71 72 71 70 70 71 70 66 57 47 37 29 25 24 25 26 27 29 30 32 32 32 32 30 29 27 24 21 17 15 12 10
9 10 12 14 17 17 18 18 17 17 15 13 12 10 9 9 9 10 12 15 18 19 20 21 20 19 27 39 48 54 54 49 46 39 33 34 37 35 32 31 33 28 21 21 22 24 27 32 38 41 46 54 64 72 77 77 76 76 76 75 71 61 49 41 31 25 25 26 28 29 30 32 32 32 34 34 34 32 32 30 26 22 18 15 12 10
12 14 16 18 18 18 18 18 16 15 13 12 12 12 11 11 10 11 14 16 19 20 21 22 19 20 30 39 50 59 55 53 54 43 34 35 35 31 28 30 30 23 19 22 24 27 32 36 40 45 51 61 72 80 82 82 79 79 79 74 66 52 40 34 28 25 27 29 31 32 33 33 33 34 35 36 36 35 34 32 28 23 18 15 13 10
15 16 18 18 18 18 17 16 15 12 11 11 13 14 15 16 15 14 17 19 22 23 23 24 22 22 28 35 48 56 55 58 56 42 35 36 33 29 28 29 25 20 21 25 28 33 37 41 45 50 60 73 83 86 85 84 82 80 75 66 56 44 33 29 27 28 30 32 34 34 34 34 34 36 38 38 38 36 35 32 29 24 18 15 13 11
15 15 17 17 17 17 15 14 13 11 12 12 14 16 18 22 23 21 22 23 25 24 24 26 25 23 27 37 48 53 58 59 49 39 38 34 29 28 29 28 22 20 25 29 34 39 42 46 51 60 75 87 90 89 87 84 80 72 65 57 49 40 33 30 30 31 33 34 35 34 34 35 35 37 39 39 38 36 34 33 30 24 19 15 13 11
15 15 15 15 14 13 12 13 13 13 13 12 14 17 21 26 28 27 27 26 26 24 21 25 27 24 28 39 47 51 55 54 43 38 37 30 27 29 29 25 22 25 31 36 42 47 50 54 63 77 89 93 91 89 85 78 69 62 56 51 46 41 36 34 34 35 36 35 35 34 34 35 36 37 38 38 37 36 34 33 30 26 21 16 13 12
14 13 11 11 10 10 11 12 13 15 15 14 16 20 24 28 29 31 28 26 27 24 20 23 25 24 27 35 46 50 48 44 37 32 29 26 27 30 28 26 28 33 39 46 53 58 63 71 81 90 94 92 89 83 74 65 58 54 50 47 45 42 39 38 38 38 37 36 35 34 34 34 35 35 36 36 35 34 34 33 31 27 23 18 14 12
10 8 8 8 10 11 12 12 14 16 16 18 20 23 27 29 30 33 30 27 27 23 19 20 21 25 28 32 43 47 41 34 29 23 23 27 31 31 30 31 36 44 52 61 68 72 80 87 92 93 91 86 79 68 60 55 52 49 47 45 43 41 40 38 38 36 35 34 33 32 32 32 32 32 33 33 32 32 33 33 32 29 25 20 15 12
7 7 7 9 12 13 13 13 15 17 18 21 25 28 32 33 34 35 34 32 30 25 20 17 19 24 26 31 39 38 29 23 20 21 26 31 33 34 36 41 50 60 70 77 82 86 92 94 92 86 78 70 61 55 52 49 47 45 42 40 38 37 36 34 33 33 32 31 30 30 29 29 29 29 30 31 31 31 32 33 33 31 26 21 16 14
8 7 8 10 13 14 14 15 17 19 22 25 28 32 34 37 38 38 37 37 35 28 20 17 18 19 21 31 36 27 20 20 23 27 31 33 36 39 46 57 69 79 86 89 92 94 93 87 78 68 60 55 51 48 46 43 41 38 36 34 33 33 33 32 32 33 33 33 33 31 30 29 28 28 28 29 30 30 32 33 34 32 28 22 17 15
9 9 9 11 13 14 15 18 20 23 26 28 30 34 38 41 40 38 37 38 37 30 20 18 16 13 19 32 32 23 24 29 30 31 33 37 43 52 64 77 88 94 96 97 95 88 78 67 59 55 51 49 46 42 38 34 30 26 23 21 19 19 19 20 21 23 25 29 31 33 35 35 35 33 31 30 29 30 31 33 34 32 29 23 18 16
10 10 10 12 15 17 18 22 24 27 29 30 32 38 43 45 43 38 33 30 30 25 18 18 14 11 23 33 30 28 33 35 34 34 39 47 59 72 85 95 100 101 97 89 78 67 59 54 52 50 45 39 33 28 23 19 15 11 10 8 8 8 8 8 9 10 12 14 17 22 27 32 37 39 39 35 32 31 30 31 33 32 29 25 19 17
10 11 11 14 17 19 21 25 28 30 31 32 35 41 45 44 41 35 26 20 19 17 18 19 15 15 26 33 32 34 37 35 38 44 54 67 81 92 99 100 97 90 78 66 58 54 52 50 45 38 29 22 17 13 10 8 7 7 6 6 6 6 5 6 6 5 6 6 7 9 13 20 29 36 41 41 37 34 32 31 31 31 30 26 21 19
12 13 13 14 17 20 24 28 31 33 33 33 37 39 38 35 30 23 19 17 16 17 22 23 18 20 27 32 36 38 38 42 52 64 77 89 97 100 97 89 78 68 59 55 53 51 44 36 27 19 14 10 8 7 7 6 6 6 6 5 5 5 5 5 4 4 5 5 5 5 7 12 20 29 37 42 42 39 34 31 30 30 29 26 23 21
14 16 16 16 16 19 24 29 31 31 29 27 28 28 25 23 20 18 18 20 19 20 26 26 23 24 28 33 40 45 50 61 75 87 97 100 97 91 81 70 61 56 56 53 47 37 26 18 13 9 8 7 7 7 7 6 6 5 5 5 5 4 5 4 4 4 4 5 5 6 7 9 15 25 34 41 46 44 38 34 31 30 29 27 25 22
16 19 21 21 21 22 27 31 31 27 22 21 21 20 20 20 20 22 22 22 23 22 25 28 26 25 31 41 52 62 73 83 91 96 98 94 82 71 62 57 57 55 50 40 29 19 13 10 8 8 7 7 7 6 6 6 5 5 5 5 4 5 5 5 6 6 6 7 8 8 9 9 13 23 35 45 50 48 44 38 33 30 29 28 27 23
18 22 25 26 26 26 27 28 25 20 18 19 20 21 22 23 23 24 24 25 27 23 20 27 32 34 47 63 74 83 90 93 93 92 86 75 63 56 56 56 53 43 31 21 14 11 10 9 8 8 7 7 6 6 5 5 5 5 5 4 5 5 6 8 9 10 10 10 10 10 11 12 13 22 38 53 59 56 50 42 35 32 30 29 28 25
20 23 26 26 23 20 20 20 18 17 19 21 23 24 24 24 23 23 26 27 27 24 24 36 49 59 73 83 87 94 96 92 88 80 67 59 55 56 55 48 36 24 16 12 10 10 9 8 8 7 7 6 6 5 5 5 4 5 4 4 6 7 10 12 13 13 13 11 11 11 11 13 13 21 42 65 73 66 56 46 37 33 31 30 29 27
19 20 20 18 17 17 19 20 20 21 22 23 24 24 22 22 21 21 24 27 30 38 50 61 71 83 91 91 91 96 94 83 71 60 54 55 56 52 42 29 19 14 12 11 10 10 9 8 8 7 6 6 5 5 5 4 5 5 4 5 8 12 16 17 17 18 15 11 11 10 13 17 15 21 48 80 91 80 62 50 41 35 32 32 30 29
15 15 16 16 18 20 22 22 22 22 23 23 22 21 19 18 18 22 31 43 56 69 79 84 86 91 97 96 93 89 76 60 51 51 55 56 47 35 24 16 13 13 12 11 11 10 9 8 7 6 5 5 5 4 4 4 4 4 6 10 15 19 22 23 25 23 17 13 12 13 19 22 20 33 67 97 106 94 72 54 44 37 34 34 32 31
16 17 19 20 20 23 23 23 22 22 21 20 18 16 17 19 29 45 62 76 87 90 92 95 94 93 95 93 84 68 50 44 49 56 56 44 28 19 16 14 14 14 13 12 11 9 8 7 6 6 5 4 4 4 4 5 5 8 13 19 23 26 28 31 34 29 21 16 14 19 26 23 28 59 91 103 107 102 79 56 47 41 37 36 34 31
20 20 22 23 23 24 24 22 21 18 16 17 18 21 31 46 65 83 93 98 100 95 92 96 98 95 88 79 65 51 44 50 56 51 38 24 16 14 14 14 14 13 12 11 10 9 7 6 6 5 4 4 4 4 4 6 10 16 22 26 29 33 36 40 41 36 32 28 24 28 29 24 43 83 102 99 106 106 82 57 49 45 41 39 36 33
23 24 24 25 24 23 21 19 18 19 23 30 39 51 68 84 95 100 101 102 102 99 97 98 95 84 70 58 51 48 53 59 52 35 21 14 14 14 15 14 13 12 11 11 9 8 7 6 5 4 4 4 4 5 7 12 19 25 29 33 36 39 43 48 49 45 44 47 50 48 38 37 65 98 102 97 106 107 83 60 54 51 47 43 38 37
26 26 25 24 22 19 19 23 29 41 54 62 70 84 96 101 100 99 101 102 100 102 103 94 77 61 49 46 49 54 59 55 39 22 15 14 15 15 15 14 13 12 12 10 8 7 6 5 4 4 4 4 5 8 13 20 27 31 35 41 44 47 53 58 60 58 56 62 73 69 57 65 89 102 100 98 105 105 86 64 61 61 54 47 43 41
27 25 22 20 20 23 33 47 60 74 84 87 90 98 103 103 99 96 98 102 103 100 89 69 51 44 44 49 56 59 55 43 25 15 15 16 16 16 16 14 14 13 11 9 8 7 5 4 4 4 4 5 8 13 19 26 32 35 40 47 53 59 67 72 75 76 70 70 81 81 75 87 100 100 99 100 102 105 91 71 71 71 59 53 52 51
23 21 23 29 39 50 62 73 84 92 92 91 93 96 98 100 100 94 91 98 99 84 62 47 42 45 49 56 60 55 44 31 20 16 16 17 17 17 15 15 14 12 11 9 7 6 5 4 4 4 5 6 9 15 21 28 35 39 44 51 58 66 76 84 90 92 82 74 81 84 83 94 101 99 100 100 100 106 97 79 79 78 63 59 64 66
25 35 48 59 65 69 71 73 81 88 86 85 89 93 96 99 100 95 90 88 78 59 45 43 47 50 57 62 58 45 33 26 22 19 20 20 19 17 15 14 14 12 10 8 6 5 5 5 5 5 5 7 10 15 23 31 36 41 45 52 59 68 78 88 96 99 94 84 81 82 82 90 99 100 100 99 100 104 99 88 85 81 70 66 71 79
49 58 66 68 65 63 64 65 70 75 77 83 93 98 100 100 100 96 86 70 55 45 43 47 51 58 64 61 49 35 27 25 25 25 26 25 21 17 16 15 14 12 9 8 6 5 5 5 5 6 7 8 12 16 23 31 37 42 48 54 63 71 80 90 97 99 100 93 82 79 81 85 93 100 101 98 101 104 99 92 89 85 76 73 80 91
57 56 57 58 60 62 68 75 81 84 85 91 99 101 99 97 92 81 64 50 43 44 46 52 59 64 61 49 37 30 25 26 29 31 31 29 24 19 18 16 14 12 9 8 6 5 5 6 6 7 9 11 12 14 20 29 37 45 53 59 68 76 83 93 100 100 102 99 85 75 78 81 85 96 102 99 100 103 99 93 91 88 82 83 92 100
51 54 58 64 70 75 82 90 96 98 97 99 100 96 90 83 70 54 44 42 45 49 53 60 64 60 50 39 31 28 27 29 31 33 32 28 23 20 18 17 15 12 9 7 6 5 6 7 8 9 10 11 13 14 19 27 35 45 55 62 68 76 84 92 100 100 100 104 94 75 71 77 80 88 99 101 100 101 98 93 92 90 88 93 99 101
58 61 67 73 81 88 94 99 102 103 102 99 92 82 72 61 49 41 40 44 50 57 63 65 61 52 43 35 31 30 32 32 32 31 28 25 22 21 20 18 15 13 9 7 7 6 7 9 10 11 12 14 15 17 18 24 31 40 51 60 65 73 83 90 98 100 98 103 102 85 70 70 73 77 90 99 100 99 95 92 93 93 93 98 101 100
60 65 72 78 86 93 97 97 98 98 93 83 73 64 54 46 42 42 45 50 56 63 67 64 56 47 40 35 34 36 38 37 34 31 28 26 25 23 21 19 17 13 10 8 7 8 9 10 11 12 14 16 17 18 18 21 26 33 44 58 64 70 79 87 94 100 99 100 106 97 77 67 66 69 79 91 95 95 92 91 95 97 98 100 101 99
62 70 76 79 83 88 90 88 86 81 73 63 58 52 44 40 41 45 52 59 64 66 64 59 51 43 39 40 41 43 44 41 38 35 33 30 27 24 22 21 18 14 10 8 9 10 10 11 12 14 17 18 19 20 20 19 21 25 36 53 64 69 75 82 89 97 100 99 103 103 88 71 65 66 73 83 87 89 91 94 97 99 100 101 100 100
60 66 73 77 77 77 78 76 73 66 57 49 45 42 40 42 46 52 59 66 68 66 60 53 47 44 45 47 49 49 48 47 44 42 40 34 28 25 24 23 19 15 12 10 11 12 13 14 15 17 19 23 23 23 23 21 19 20 26 40 57 67 72 77 83 92 99 99 100 103 96 82 73 70 71 77 83 86 91 97 99 100 101 100 100 100
58 58 63 69 71 69 67 65 62 56 47 40 37 38 42 47 54 60 65 67 66 63 58 53 50 51 53 55 57 56 55 53 52 49 43 35 30 27 26 24 21 16 14 14 15 17 18 19 20 21 23 27 28 28 28 26 23 21 20 25 39 56 69 75 78 85 95 100 99 101 100 91 83 79 76 75 79 84 90 98 101 100 100 100 100 100
55 55 58 63 65 65 61 56 50 45 40 37 39 45 51 56 63 67 68 66 63 60 58 57 57 59 61 63 64 64 62 60 57 53 44 35 31 30 29 27 23 19 18 18 19 20 22 23 24 25 26 27 29 29 30 29 28 26 24 21 24 37 56 71 76 78 87 97 100 100 101 98 92 88 84 78 77 83 91 98 101 100 99 100 100 100
49 53 58 60 60 58 54 50 46 43 41 43 49 55 60 65 69 70 69 67 65 63 62 63 65 67 70 71 71 70 69 65 60 53 43 35 33 33 32 29 25 22 23 24 25 26 28 29 29 29 28 27 28 28 28 29 29 29 28 26 22 21 33 55 72 76 79 90 99 100 101 104 101 94 90 85 82 87 94 98 100 100 100 100 100 100
50 54 56 58 57 54 53 52 51 49 49 53 58 64 68 72 73 73 71 70 70 69 70 71 72 75 78 78 78 77 73 67 59 51 42 38 37 38 36 32 29 28 29 31 34 34 35 35 35 33 31 30 28 28 28 28 29 29 28 28 27 22 19 32 57 73 76 82 94 100 101 105 105 97 91 92 92 93 96 99 100 100 100 100 100 100
54 56 58 60 61 59 57 58 59 60 60 62 67 72 74 76 76 75 75 75 75 75 76 76 79 83 85 87 87 83 76 68 59 50 43 42 44 44 41 37 35 35 37 39 40 41 41 42 41 39 36 34 31 30 30 30 30 30 28 27 28 28 22 18 33 59 74 78 87 97 101 104 104 95 88 93 98 96 95 98 100 100 100 100 100 100
59 61 62 64 65 63 62 63 66 69 71 73 76 78 77 78 78 78 78 79 79 80 82 83 85 89 93 95 94 88 80 72 62 52 48 50 51 49 46 42 41 42 44 46 46 47 47 48 47 45 42 38 35 33 32 32 31 30 29 26 25 26 27 21 18 36 61 74 81 91 99 104 102 92 85 89 96 96 94 95 98 98 99 100 100 100
64 65 66 67 67 65 64 66 70 74 77 78 79 79 79 80 80 81 82 84 85 88 92 93 94 96 98 99 98 92 85 76 66 57 55 57 57 54 50 48 48 49 51 52 52 52 52 52 51 49 45 40 37 36 35 34 33 30 26 25 23 22 25 26 19 20 40 64 77 84 93 102 103 96 90 91 93 94 94 94 94 95 97 99 100 100
Wind_Speed
27 28 28 29 29 30 31 32 33 35 36 36 36 36 37 38 40 41 43 45 46 47 47 46 45 44 44 44 43 43 43 42 40 38 36 33 31 29 28 27 26 26 27 29 30 31 32 32 34 35 36 37 38 40 41 42 43 45 46 48 49 49 51 52 54 55 56 57 58 59 60 60 60 61 61 62 62 63 63 63 64 64 65 65 65 66
29 30 30 30 31 32 33 34 35 36 37 37 37 38 39 40 42 43 45 47 48 48 48 46 44 43 44 43 43 43 42 40 38 36 35 32 30 29 28 27 26 26 28 30 32 33 34 35 36 37 39 40 41 43 44 44 45 47 48 49 50 51 52 54 55 57 58 59 59 59 60 60 61 61 62 63 63 64 64 64 64 64 65 65 65 66
30 31 31 32 32 33 34 35 36 37 38 38 39 39 41 42 44 45 47 48 49 49 48 46 44 42 43 43 42 42 40 39 37 34 33 31 30 29 28 26 26 27 29 31 33 35 36 37 38 40 41 42 43 44 46 47 47 49 50 51 52 53 54 56 57 58 59 59 59 60 60 60 61 62 62 63 64 64 64 64 65 64 64 64 65 65
31 32 32 33 33 34 34 35 36 37 38 39 40 41 43 44 46 47 48 49 49 49 48 46 44 42 42 42 41 41 39 37 35 32 31 31 29 29 28 27 27 28 30 32 34 36 38 40 41 42 43 43 44 46 47 48 49 50 52 53 54 55 56 57 58 59 60 60 59 60 60 61 61 62 63 64 64 65 65 65 65 64 64 64 64 65
33 33 33 34 34 35 35 36 37 38 39 40 41 43 44 46 48 50 50 50 48 47 46 46 45 42 41 42 40 40 38 35 32 31 31 31 29 28 28 28 29 30 32 34 36 39 41 42 43 44 45 45 46 47 48 49 51 52 53 54 55 56 57 58 59 60 60 60 60 60 61 61 62 63 64 64 65 65 65 65 65 64 63 63 63 64
33 34 34 35 35 35 36 37 38 39 40 41 42 44 46 47 49 51 51 50 48 46 45 44 45 43 41 41 40 39 36 33 31 31 32 31 29 28 28 29 31 34 36 38 40 41 43 44 45 45 46 47 48 49 50 51 52 53 54 55 56 57 57 58 59 60 60 61 61 61 62 63 63 64 65 65 65 65 65 65 64 63 63 63 63 63
34 35 35 35 35 36 37 38 39 40 41 42 44 45 47 49 50 51 50 49 48 46 44 43 44 44 41 38 39 38 35 31 30 32 32 31 30 29 29 31 34 37 40 41 42 43 45 46 46 47 48 50 51 52 53 54 55 56 56 57 58 58 58 58 59 60 60 61 62 62 63 64 64 65 65 65 65 65 65 64 63 63 62 62 62 63
35 35 36 36 36 36 37 39 40 41 43 44 46 47 49 50 51 51 50 48 47 46 43 42 44 45 41 37 37 36 33 31 31 32 32 32 31 30 32 35 39 41 43 44 45 45 46 48 49 50 51 53 54 55 56 57 58 59 59 60 60 60 59 60 60 60 61 61 62 63 64 64 65 65 65 65 65 65 65 64 63 62 62 62 62 63
36 36 36 36 36 37 38 40 41 42 44 46 47 49 50 51 50 50 49 47 47 45 43 42 43 45 41 35 35 34 32 33 32 32 32 31 31 32 35 40 42 44 46 46 47 47 48 49 51 52 53 55 57 58 60 61 62 62 62 62 62 62 62 62 62 61 62 63 63 64 64 65 65 65 65 66 65 65 65 64 63 62 61 62 62 63
36 36 36 36 37 38 39 41 42 44 45 47 49 50 51 51 50 50 48 47 46 44 43 43 43 44 40 34 33 33 33 34 34 33 32 30 31 35 39 42 44 46 48 49 48 49 50 51 52 54 55 57 58 60 62 64 64 65 64 64 64 64 64 63 63 63 63 64 65 65 65 65 66 66 66 66 66 65 65 64 63 61 61 61 62 63
37 36 36 37 38 39 40 42 43 45 47 49 50 51 51 50 50 49 47 46 46 44 43 43 42 43 39 34 34 35 35 36 36 35 34 32 34 38 42 44 46 49 50 50 50 50 51 52 53 55 56 58 60 62 64 66 67 66 66 66 65 64 64 64 64 64 65 65 66 66 66 66 66 67 67 67 66 66 65 65 63 62 61 61 63 64
36 36 36 37 38 40 41 43 45 47 48 50 50 50 51 50 50 49 48 47 46 45 44 44 42 39 35 34 36 37 38 38 38 39 37 36 39 43 46 47 49 52 52 52 52 53 53 54 55 56 57 59 61 63 66 68 68 68 67 67 66 65 65 65 65 65 66 66 66 67 67 67 67 67 67 67 67 67 66 65 64 63 62 62 63 64
36 36 37 38 39 40 42 44 46 48 49 49 49 49 50 50 51 50 49 48 48 47 46 44 41 36 32 33 35 37 39 38 39 42 42 41 44 48 50 51 53 54 55 55 55 55 56 56 57 58 59 61 63 65 67 68 68 68 67 67 66 65 66 66 66 67 67 67 67 68 68 68 68 68 68 68 68 68 67 66 64 63 62 62 62 63
36 37 38 39 40 42 43 45 47 48 48 48 48 48 48 49 50 51 50 50 49 49 47 43 39 34 32 33 34 36 39 40 42 44 44 44 48 52 53 54 56 56 57 57 57 58 58 58 59 60 61 63 65 67 68 68 68 67 67 67 66 66 67 68 68 68 69 69 69 69 69 69 70 70 69 69 69 68 68 67 65 64 63 63 63 63
38 39 39 41 42 43 45 46 46 47 47 47 47 47 47 47 48 50 50 51 51 51 47 42 37 33 32 33 35 36 39 42 45 45 45 48 51 53 54 56 58 58 58 59 59 59 60 60 61 62 63 65 67 68 68 68 68 67 67 67 67 67 68 69 70 70 70 70 71 71 71 71 72 72 71 70 70 69 68 67 65 64 63 63 63 63
40 41 42 43 43 44 45 45 45 46 47 47 47 47 47 46 47 48 50 51 52 52 48 41 36 32 30 31 34 37 39 43 46 46 48 51 52 53 55 57 59 59 60 60 60 61 61 62 63 64 66 67 68 68 68 68 68 67 67 67 68 68 69 70 71 72 72 73 73 73 73 73 74 73 73 71 70 69 68 67 65 64 64 63 63 63
42 43 43 44 44 44 44 44 44 45 46 47 47 46 47 47 47 48 50 51 51 52 49 43 37 32 29 30 33 37 41 45 48 49 51 52 52 53 56 58 59 60 61 61 61 62 63 64 65 66 68 69 69 69 69 68 68 69 69 69 70 70 71 73 74 75 75 76 76 76 76 76 76 75 74 73 71 70 69 67 65 65 64 63 63 63
44 44 44 43 43 43 43 44 43 44 45 46 46 46 47 48 48 49 51 51 51 52 51 46 40 34 31 33 35 39 44 47 50 52 52 52 52 54 57 58 59 59 60 61 63 64 64 66 67 68 69 69 70 70 70 69 70 70 71 72 72 73 74 76 77 77 78 78 79 79 79 79 79 78 77 75 73 71 69 67 66 65 64 63 63 63
44 45 44 42 42 42 43 43 43 43 44 44 44 45 46 47 48 49 49 49 50 52 53 51 45 37 35 37 39 42 47 51 52 52 51 51 53 55 57 58 58 59 61 63 65 66 67 68 69 70 70 70 71 71 71 71 72 72 73 74 75 76 77 78 79 80 81 81 81 81 82 81 81 80 78 76 74 72 70 68 66 66 65 64 63 62
44 45 44 42 42 42 42 43 43 44 44 44 44 44 45 46 47 48 47 47 48 50 52 54 51 43 38 39 42 47 51 53 53 53 52 53 55 57 58 59 60 62 64 66 67 68 69 70 71 71 71 71 72 72 73 74 74 75 76 77 78 79 80 81 82 83 84 84 84 84 83 83 82 81 79 77 75 72 70 68 66 65 65 64 62 62
44 45 45 43 42 43 42 42 43 44 43 44 44 44 45 46 46 47 46 44 46 49 51 54 55 48 42 41 46 50 53 53 53 54 55 56 57 58 60 61 63 65 66 68 69 70 71 71 71 72 73 73 74 75 76 78 79 80 82 83 84 85 86 87 87 88 88 87 87 86 85 84 83 82 79 77 74 72 69 67 66 65 64 63 62 61
45 46 45 43 42 42 42 41 43 43 43 43 44 44 44 44 45 47 48 46 46 48 49 52 56 50 43 44 49 52 53 53 54 56 57 57 58 60 62 64 65 66 67 68 69 70 71 72 72 73 74 76 77 79 81 83 85 87 88 89 89 89 89 89 88 89 89 89 89 88 87 86 84 81 79 76 73 71 68 66 65 65 64 63 61 61
45 45 45 43 42 41 40 41 41 41 41 42 42 42 43 43 43 46 48 49 50 50 49 52 56 51 46 48 51 53 54 56 56 57 58 59 60 62 64 64 65 66 68 69 70 71 72 73 75 76 77 79 82 84 86 88 89 90 90 89 89 88 87 87 87 87 88 88 88 88 87 86 84 82 78 75 72 70 67 65 65 64 63 62 61 60
44 44 44 43 41 39 38 39 40 40 40 40 40 41 42 42 43 45 47 49 51 51 50 53 56 54 50 50 52 54 57 57 57 58 59 60 62 63 64 65 66 67 68 70 72 73 74 76 78 80 82 85 87 88 89 89 89 88 88 88 89 89 89 90 90 90 90 90 90 88 87 85 83 81 78 74 71 68 66 64 64 63 62 61 60 58
43 42 42 43 42 39 38 37 37 37 38 38 39 41 42 43 44 46 47 49 52 52 52 53 55 54 52 51 53 56 57 57 58 59 60 62 63 63 65 66 68 69 71 72 74 75 78 80 83 85 87 88 89 88 88 88 88 88 89 90 91 93 94 94 94 94 94 93 92 91 88 86 82 79 76 73 69 67 64 63 62 62 61 60 58 56
41 40 40 41 41 40 40 39 38 37 37 37 39 40 42 43 45 47 49 50 52 53 53 53 54 54 52 52 56 59 59 60 61 62 62 63 63 65 67 68 70 72 74 75 77 79 81 84 86 87 88 88 87 87 87 88 89 91 91 92 94 96 97 97 97 97 97 96 94 92 89 85 81 77 74 70 67 64 62 61 60 60 60 58 56 54
39 37 37 37 37 37 38 39 40 40 39 39 41 42 44 46 47 49 50 50 51 53 54 53 55 57 54 55 59 61 61 63 64 64 64 64 64 66 69 71 72 74 76 78 81 83 84 85 86 87 87 87 87 87 88 89 90 93 94 95 96 97 97 98 98 98 98 97 95 93 89 85 79 74 70 67 64 62 60 59 58 58 58 56 54 52
37 35 34 33 33 34 36 37 40 41 42 43 44 45 47 48 49 50 50 50 51 53 54 54 56 59 57 58 61 62 63 64 64 64 64 65 66 68 70 72 73 75 78 80 82 84 85 86 86 86 87 87 87 88 90 92 93 94 96 97 97 97 96 96 96 96 95 94 93 90 86 82 76 70 66 63 61 59 57 56 56 56 55 53 51 50
35 33 32 32 31 32 35 38 40 42 44 46 47 48 49 50 50 50 49 50 51 53 55 56 57 59 59 60 62 62 63 64 63 63 64 66 68 69 71 72 74 76 79 80 82 84 85 86 86 86 86 87 88 90 93 95 96 97 97 96 95 93 92 92 93 93 93 91 88 84 80 75 69 63 59 58 57 55 54 54 53 53 52 50 49 48
35 33 33 34 32 32 36 39 41 43 45 47 49 49 49 50 50 49 49 50 52 54 56 58 58 58 59 60 61 61 61 62 63 64 65 67 68 70 72 74 76 78 80 82 83 84 84 84 84 85 86 88 90 93 95 97 97 97 95 92 89 88 89 90 91 92 92 88 82 77 72 66 60 55 52 52 53 52 51 51 50 50 49 47 46 46
37 36 37 38 36 34 38 41 43 44 46 48 49 49 48 48 49 49 49 50 53 56 57 58 58 57 58 59 59 59 61 64 65 66 66 67 69 71 73 76 78 79 81 82 83 83 83 83 84 85 87 89 91 93 95 95 94 92 90 87 86 86 88 89 90 91 89 83 76 70 65 58 50 46 46 47 49 48 48 48 47 46 46 45 44 44
39 40 40 42 41 39 40 43 44 45 47 48 48 47 47 48 50 51 51 52 55 58 58 58 58 59 59 59 58 59 62 66 68 68 69 70 72 75 77 79 80 81 81 82 82 83 83 84 85 86 87 89 90 92 92 92 90 87 86 85 85 86 87 87 88 89 86 79 71 64 58 50 42 40 41 44 45 45 44 44 44 43 43 43 42 42
41 42 43 45 45 43 43 44 44 45 47 48 48 47 48 50 52 52 53 53 54 57 58 58 58 59 59 59 60 62 64 66 68 70 71 74 75 77 78 80 81 81 81 82 82 83 83 84 85 86 87 88 88 89 89 87 86 84 83 83 83 84 85 85 85 86 82 76 68 60 53 44 37 36 38 40 42 42 41 41 41 40 41 41 41 40
43 45 46 48 48 46 45 45 45 45 47 48 49 49 50 52 54 55 55 53 54 56 57 56 57 57 58 61 64 65 66 67 69 71 72 75 77 78 78 79 80 81 81 82 82 82 82 82 83 83 84 85 85 85 84 83 82 82 81 80 81 82 82 82 82 82 79 73 67 60 51 40 35 35 36 37 39 39 38 39 39 39 39 39 39 38
45 46 47 48 49 48 47 47 47 47 49 51 52 52 52 54 56 57 56 53 53 56 56 55 56 58 60 63 65 66 66 67 69 72 74 75 77 78 79 79 80 81 81 81 81 80 80 80 81 82 83 83 82 81 81 80 79 79 78 78 78 78 78 77 77 76 74 69 64 58 49 39 36 36 35 35 36 36 36 37 37 37 37 37 37 37
46 46 47 47 48 48 49 49 50 51 52 53 54 54 55 56 57 58 57 53 53 55 56 56 59 61 63 65 65 66 67 67 69 73 75 76 77 79 80 80 81 80 80 80 79 79 79 79 80 81 81 81 80 79 79 78 78 77 76 75 75 74 73 73 72 71 69 65 61 56 47 39 37 36 34 34 35 34 35 36 36 36 36 35 35 35
45 46 46 48 49 50 51 51 52 53 54 55 55 56 57 57 57 59 60 57 56 57 58 60 62 64 65 66 66 67 68 68 69 72 75 77 78 79 80 80 80 79 78 77 76 76 77 77 78 79 79 78 77 76 76 75 75 75 74 73 73 72 71 70 69 67 65 61 59 55 46 39 38 36 34 34 33 33 34 35 35 35 35 34 33 33
45 46 47 49 50 51 53 54 54 55 56 56 56 56 57 57 57 58 59 58 57 58 61 63 64 65 66 67 68 69 71 71 71 73 75 77 78 78 79 78 77 76 75 74 75 75 75 75 76 76 76 75 74 73 73 73 73 73 72 71 72 71 70 68 67 66 63 58 57 54 47 40 38 36 34 33 33 32 33 33 33 33 34 33 31 30
46 47 48 50 51 52 53 54 56 57 57 56 55 55 56 56 56 57 58 57 58 60 62 64 65 67 68 69 71 72 75 76 76 75 75 76 76 77 78 77 75 74 74 74 75 75 74 74 74 74 73 72 71 72 72 72 71 71 70 70 69 69 68 66 65 64 62 58 54 52 47 41 39 37 35 33 32 32 32 32 32 32 32 31 29 29
48 49 50 50 51 52 53 54 54 55 55 54 54 54 54 55 55 57 59 60 60 62 65 67 68 69 70 72 74 75 77 79 79 77 76 76 76 76 77 76 76 76 75 75 74 74 73 73 72 72 71 71 72 72 71 70 70 69 69 68 68 67 66 64 63 63 62 58 53 49 46 41 39 38 36 33 31 31 31 31 31 31 31 29 28 27
49 50 51 51 52 53 53 54 54 53 53 52 53 54 54 54 56 58 61 63 64 65 67 69 71 72 73 74 76 76 77 78 78 78 77 77 76 76 76 76 76 75 75 74 73 73 72 70 70 70 71 71 71 71 70 70 69 69 68 67 67 66 65 63 62 62 61 58 53 47 44 41 38 37 36 34 31 30 30 30 30 30 29 28 26 25
50 51 52 52 52 53 53 54 54 53 52 52 53 54 55 56 59 61 64 66 68 69 70 71 73 74 74 74 75 76 76 76 76 77 77 77 77 77 77 76 75 74 72 72 72 71 70 69 69 69 69 69 69 69 69 69 69 68 68 67 67 66 66 64 61 61 60 58 54 48 43 39 37 35 35 34 32 30 30 30 30 29 28 27 25 23
51 51 52 52 53 53 53 54 55 54 54 54 55 57 58 60 63 66 67 68 69 71 72 73 74 74 75 75 74 75 75 75 75 76 77 78 78 77 77 77 75 74 72 71 70 69 68 68 68 68 68 68 68 69 68 68 68 68 67 67 66 66 66 64 62 60 60 58 55 49 43 39 37 35 34 33 32 30 30 30 29 27 26 25 24 23
51 51 52 53 53 53 53 54 54 54 55 55 58 60 62 64 66 68 69 69 69 71 73 73 74 74 75 76 76 75 76 76 77 78 79 79 78 78 77 75 74 72 71 70 68 68 68 68 67 67 67 67 67 68 68 68 68 67 66 65 65 64 64 64 62 61 60 58 55 50 44 40 36 35 34 33 32 30 29 28 26 24 24 23 23 23
51 52 53 53 53 53 53 54 55 55 55 56 58 60 62 64 66 67 69 70 71 71 73 74 75 75 76 76 77 77 78 79 79 80 80 80 79 77 75 73 72 71 70 68 67 67 67 67 67 67 67 67 67 68 68 68 68 67 65 64 63 63 62 62 62 61 60 58 55 50 45 40 36 34 33 32 31 29 27 24 22 22 22 21 21 22
51 52 52 52 52 52 52 53 54 54 54 55 58 60 62 64 66 68 69 71 72 73 74 75 76 77 78 79 79 80 81 81 81 81 81 80 77 75 73 71 70 70 69 67 66 66 66 66 66 66 66 66 67 67 68 68 68 67 66 64 62 62 61 60 60 60 59 57 55 51 46 41 36 34 32 30 29 26 23 21 20 20 20 19 20 23
51 51 51 51 51 51 51 51 52 53 55 57 60 62 64 65 67 69 70 71 72 74 75 77 79 81 81 81 82 82 82 82 82 81 80 78 75 72 71 70 69 68 67 66 65 65 65 66 66 66 66 66 67 67 67 67 67 66 66 64 62 61 59 58 57 57 58 56 54 50 46 40 36 33 30 28 25 22 19 19 18 17 17 18 21 23
51 51 51 51 51 51 52 53 54 55 58 61 63 64 65 66 68 70 72 74 75 77 78 80 81 83 83 83 83 82 82 82 82 81 78 76 73 71 69 68 67 66 64 64 64 65 65 66 66 67 67 67 67 67 67 67 67 66 65 65 63 61 59 57 55 54 55 55 53 50 45 40 36 31 26 23 21 19 18 18 17 15 16 19 21 21
51 52 52 52 52 52 54 55 57 58 59 61 64 66 68 70 72 73 75 77 79 80 80 81 82 84 84 84 83 82 81 81 80 79 77 74 71 69 68 66 65 64 63 63 63 65 66 66 67 67 68 68 68 68 68 68 67 66 65 65 64 61 58 55 53 51 51 52 52 49 44 38 34 28 23 20 19 19 18 18 16 15 16 18 19 18
52 52 53 53 54 55 57 59 61 62 63 64 66 69 71 73 75 76 78 79 80 81 82 82 81 81 81 82 82 81 81 80 79 77 74 71 69 67 66 65 63 62 62 62 63 64 65 67 68 68 69 69 69 69 69 69 68 67 66 64 63 61 58 55 52 49 48 48 49 47 43 36 31 27 23 21 20 20 19 18 17 16 16 17 18 17
52 53 54 56 57 59 61 63 64 65 66 67 69 71 74 76 77 79 80 81 82 82 83 82 81 79 78 79 80 80 79 78 77 73 70 67 66 66 66 65 63 62 62 62 63 64 64 66 67 68 69 70 71 71 70 70 69 67 66 64 62 60 58 55 52 48 46 44 45 45 42 36 30 26 24 23 22 21 20 19 18 18 17 17 18 17
Wind_Direction
314 314 314 313 313 313 313 313 314 315 316 316 316 316 316 317 318 319 319 319 320 321 323 324 324 325 324 323 323 323 322 322 323 322 319 316 315 314 314 314 314 313 313 312 312 312 312 312 313 312 312 312 311 310 310 309 309 309 308 308 308 307 307 306 306 306 306 306 306 305 304 304 304 303 303 303 303 303 303 303 303 303 304 304 306 307
313 313 313 312 311 311 311 312 313 314 315 315 315 316 316 316 318 319 319 320 320 321 323 324 324 325 324 323 323 323 322 323 323 321 317 315 314 314 315 314 313 313 314 314 314 315 315 315 314 313 313 312 311 310 310 310 310 309 309 309 308 308 307 307 307 307 307 307 307 306 305 304 304 304 303 303 303 303 303 303 303 304 305 305 306 308
312 312 312 311 310 310 310 311 312 313 314 314 314 315 316 316 318 319 319 320 321 321 323 324 324 325 324 323 323 323 322 323 323 319 315 314 314 314 314 314 313 313 314 315 315 315 316 316 315 314 312 311 311 310 310 310 309 309 309 309 309 309 308 308 308 307 308 307 307 306 305 304 304 304 304 303 303 303 303 303 304 304 305 306 307 309
311 311 310 310 309 309 310 310 311 312 313 313 314 315 316 317 317 318 319 320 321 322 323 324 324 325 324 323 323 322 322 323 322 317 314 314 315 314 313 312 312 313 314 314 315 316 316 316 315 313 312 311 311 310 310 310 309 309 310 310 310 310 309 309 308 308 308 307 306 305 305 304 304 304 303 303 303 304 304 304 304 305 306 307 309 310
310 310 309 309 308 309 309 310 311 312 313 313 314 314 315 316 317 318 319 320 321 322 323 323 323 325 324 322 323 322 322 323 321 316 314 315 315 313 312 312 313 314 315 316 316 316 316 315 314 313 312 311 311 311 310 310 310 310 311 310 310 310 309 309 309 308 308 307 306 305 305 304 304 303 303 303 304 304 304 304 305 305 306 308 310 311
309 309 308 308 308 308 309 310 311 312 313 313 314 314 315 316 317 318 318 319 320 321 323 323 323 324 325 323 322 321 321 323 320 316 315 314 314 313 313 314 315 316 317 317 317 316 316 315 314 313 313 312 312 312 312 312 312 311 311 310 310 310 309 309 308 307 307 306 306 305 304 304 303 303 303 303 304 304 304 304 305 306 307 309 311 312
308 308 308 308 308 308 309 310 311 312 312 312 313 314 315 316 316 317 318 319 320 321 323 324 323 323 325 324 321 320 320 321 319 316 314 314 315 315 315 316 317 317 318 318 318 317 316 315 314 314 314 314 314 314 314 313 312 312 311 311 311 311 310 308 307 306 306 306 305 305 304 304 303 303 303 303 304 304 304 304 305 306 308 309 311 312
307 307 307 308 307 308 309 310 311 311 311 312 313 314 315 315 316 316 317 318 319 320 322 324 322 322 325 325 319 318 319 319 318 315 314 315 316 317 317 317 318 318 318 318 318 318 317 316 315 316 315 315 315 315 314 314 313 313 312 312 311 311 309 308 307 306 305 305 304 304 304 303 303 303 303 304 304 303 304 304 305 307 308 310 311 312
307 307 307 308 308 308 310 310 311 311 311 312 313 314 314 314 315 315 316 317 318 320 322 323 322 321 325 326 318 317 318 317 316 314 315 316 317 318 318 318 319 319 318 318 319 319 317 316 316 316 316 315 315 315 315 314 314 313 312 312 311 310 309 307 306 306 305 304 304 303 303 302 303 303 304 304 304 303 304 304 305 307 308 309 310 311
306 307 307 307 308 309 309 310 310 310 311 312 312 313 313 313 314 314 316 317 317 319 321 323 323 322 325 326 318 317 318 315 314 314 315 316 316 317 318 319 319 318 317 317 318 318 316 315 315 315 315 315 314 314 314 314 313 312 312 311 310 309 308 307 306 305 304 304 303 303 302 303 303 304 304 304 304 304 304 304 305 307 308 309 310 310
306 307 307 308 308 309 309 309 309 310 311 312 312 312 312 313 313 314 315 316 316 319 320 322 324 323 326 326 321 319 318 315 315 314 314 314 313 315 317 319 319 316 315 316 317 316 314 314 314 315 315 314 313 312 312 312 312 311 311 310 309 308 307 306 305 304 304 303 303 302 302 303 304 304 304 304 304 303 304 304 305 306 307 308 309 309
306 307 307 308 308 308 308 309 309 310 311 311 311 311 312 313 313 314 315 315 316 318 320 322 324 325 328 326 323 321 317 317 316 314 314 314 313 315 318 319 318 315 315 316 316 315 314 314 314 313 313 311 311 311 311 311 311 310 310 309 308 307 306 305 304 303 303 303 302 302 303 303 304 304 304 304 303 303 303 304 304 305 306 307 308 308
306 307 307 307 308 308 309 309 309 309 310 310 311 312 313 313 313 314 315 315 316 317 320 322 324 327 328 325 323 319 317 317 314 312 313 314 315 317 319 319 316 315 315 316 316 315 314 313 312 312 311 310 310 310 311 311 310 309 309 308 307 306 305 304 303 303 303 303 303 303 303 303 304 304 304 304 303 303 303 303 304 304 305 305 306 307
306 307 307 307 308 308 308 308 308 309 310 310 311 312 313 313 313 314 315 316 316 317 319 322 325 328 328 326 322 318 316 315 311 310 312 313 316 318 319 316 314 314 315 315 315 314 313 312 311 310 309 309 310 310 311 310 310 309 308 308 307 306 304 304 303 303 303 303 303 303 303 303 303 303 304 303 302 302 302 302 303 303 303 303 304 306
307 307 308 307 308 308 308 308 308 309 310 311 311 312 312 312 312 314 314 315 315 315 318 321 324 328 329 327 321 317 316 312 308 308 310 313 316 318 316 313 312 314 315 315 314 313 311 310 309 309 309 309 310 311 311 311 310 309 308 307 306 305 304 303 303 303 303 303 303 303 303 303 303 303 303 302 302 301 301 301 301 301 301 302 303 304
307 308 308 308 308 308 308 308 309 310 310 311 311 311 311 311 312 313 313 314 314 314 316 319 322 327 329 325 319 315 312 308 305 307 310 314 317 315 312 311 312 314 314 313 312 310 309 308 308 308 309 310 311 312 312 311 310 309 308 307 306 305 304 303 303 303 303 303 303 303 303 302 302 302 302 301 300 299 299 299 300 299 299 300 301 302
308 308 308 308 308 308 308 309 310 310 310 310 311 312 311 311 312 312 312 313 313 313 314 317 321 327 327 322 318 313 308 305 306 309 312 315 316 313 310 311 313 313 312 311 309 307 307 307 307 309 310 312 313 312 312 311 310 309 308 307 306 305 304 303 303 303 303 303 302 302 302 301 301 301 300 299 299 298 298 298 298 297 298 298 299 301
307 307 308 308 308 309 309 309 310 310 310 310 311 312 311 311 312 312 312 314 314 312 314 316 321 328 328 322 317 311 307 306 308 311 314 315 313 310 309 311 312 311 309 307 306 306 307 308 309 311 313 313 313 312 312 311 310 309 308 307 306 305 305 304 303 303 303 303 302 302 301 300 299 299 298 297 297 297 296 296 296 296 296 297 297 299
307 307 308 309 309 309 309 310 310 309 309 310 311 312 311 312 312 312 313 314 314 313 315 316 320 327 329 323 317 311 308 308 310 313 314 312 309 308 309 310 310 308 306 306 307 308 310 311 313 314 314 314 313 312 311 311 310 309 308 307 306 306 305 304 303 303 302 301 301 300 299 298 297 296 296 295 295 295 295 295 294 294 295 295 296 297
307 307 308 310 310 310 310 311 310 310 310 311 312 311 311 311 311 311 312 313 313 314 316 317 318 324 329 323 316 311 309 311 312 313 311 310 309 310 310 310 309 308 308 309 310 312 313 315 315 315 314 313 312 312 311 310 309 308 307 307 306 305 304 303 302 301 300 299 298 297 296 295 294 294 293 293 293 293 293 293 293 293 293 293 294 295
307 307 308 310 310 310 311 311 310 310 311 312 312 311 311 311 311 310 311 313 313 314 316 316 315 322 330 323 314 311 311 312 312 311 310 311 311 311 310 310 310 310 311 312 314 315 316 316 315 314 313 312 312 311 310 309 309 308 307 307 306 305 304 303 301 300 298 297 295 294 293 292 292 292 291 291 291 291 291 291 291 291 291 292 292 293
307 307 309 310 311 311 312 312 310 310 312 312 311 311 311 311 312 311 312 314 313 313 316 314 313 321 329 319 313 313 312 311 310 310 311 312 312 311 311 312 313 313 314 315 316 316 315 314 313 312 312 312 312 311 311 310 310 309 309 308 307 306 304 303 301 299 298 296 295 293 292 291 290 289 289 289 289 289 289 289 289 289 290 290 291 292
307 307 309 310 311 312 312 311 310 311 311 312 311 311 310 311 312 312 313 315 314 314 317 313 313 322 325 317 314 313 310 310 311 312 313 312 312 312 313 314 315 315 316 315 315 314 313 313 313 313 313 313 312 312 312 311 311 311 310 309 308 306 305 304 302 301 299 298 296 294 292 290 289 288 287 287 287 286 286 286 287 287 288 288 289 290
307 308 310 310 310 312 312 311 310 311 312 312 312 311 310 312 312 312 313 313 313 316 316 313 315 321 320 317 314 310 309 311 312 312 312 312 313 314 315 316 316 315 315 314 314 314 314 315 315 315 314 314 314 314 313 313 312 311 311 310 309 308 306 305 303 302 300 298 296 294 293 290 288 286 285 284 284 284 284 284 285 285 286 286 287 288
309 311 312 311 312 314 313 311 311 312 313 313 312 310 310 311 311 312 313 313 314 315 314 314 315 316 315 315 311 308 310 312 311 311 313 314 316 316 316 316 315 315 314 314 315 316 316 316 316 316 316 315 315 315 315 314 313 312 312 311 310 309 307 306 304 302 300 298 296 294 292 290 287 285 283 282 281 281 281 281 282 283 283 284 286 287
311 313 314 314 316 318 317 316 315 314 315 313 311 310 310 312 312 313 314 314 315 314 313 314 313 311 313 313 310 309 312 312 312 314 316 317 318 318 316 316 315 316 317 317 318 317 317 317 317 317 316 316 316 315 315 315 314 313 313 312 311 310 309 308 307 305 303 301 299 296 294 291 288 284 281 279 278 277 277 278 279 280 281 282 284 285
312 315 316 316 319 320 319 317 316 316 317 315 312 312 313 314 314 314 314 315 314 312 312 312 310 310 314 313 310 311 313 313 315 316 317 318 319 318 317 317 318 319 319 319 319 318 318 318 317 317 317 316 316 316 316 316 315 315 315 315 314 313 312 311 310 309 307 305 302 300 297 293 289 285 281 277 276 275 275 276 276 277 279 280 282 283
314 318 319 319 322 322 317 315 315 316 317 315 313 313 314 315 315 314 314 314 312 310 310 311 310 311 314 313 312 313 314 314 316 317 318 319 318 318 318 319 319 319 319 319 319 318 318 318 318 318 318 318 318 318 318 317 318 318 318 317 316 316 315 313 312 310 309 307 304 301 298 295 290 285 280 276 274 273 273 273 274 275 276 278 280 281
318 322 321 321 325 322 317 315 315 316 316 314 313 314 315 315 314 313 313 312 310 309 309 310 311 312 313 313 313 315 315 316 317 318 319 320 320 319 320 319 319 319 319 319 319 319 319 319 320 320 320 320 320 320 320 320 320 320 319 318 318 317 316 315 315 315 313 311 307 303 299 296 291 285 279 275 272 271 271 271 271 273 274 275 277 278
321 323 322 321 325 323 317 315 316 315 314 312 312 313 313 313 312 312 312 311 309 308 309 310 311 312 313 313 314 316 317 318 318 319 320 321 320 320 319 319 320 320 321 321 320 320 320 320 321 321 322 323 323 322 322 321 321 321 320 320 320 319 319 319 320 320 319 315 311 306 302 298 292 284 277 272 270 268 268 269 269 270 271 273 274 276
322 323 322 321 324 324 318 316 316 315 313 311 311 312 312 311 311 311 311 310 308 308 309 310 312 313 314 315 317 318 319 319 319 320 321 321 320 320 320 321 322 322 322 322 321 321 322 322 323 324 324 324 324 323 322 322 322 322 322 323 322 322 323 323 324 325 323 320 315 310 306 301 292 283 276 271 268 266 266 266 267 268 269 270 271 273
322 323 322 321 322 323 319 316 316 314 312 310 310 311 312 311 311 311 311 310 309 309 310 312 314 315 316 317 317 318 318 320 321 321 322 322 321 322 323 324 324 323 323 322 323 323 324 325 326 326 325 324 324 323 324 324 324 324 325 325 325 325 325 326 327 328 328 325 320 315 310 303 292 281 275 271 267 265 264 264 265 266 267 268 269 271
322 322 321 319 320 321 319 317 316 314 311 310 311 312 312 311 311 311 311 311 311 311 314 316 317 318 318 317 316 316 318 320 321 322 323 323 323 324 325 325 324 324 324 324 325 326 327 327 326 325 325 325 325 325 325 326 326 327 327 327 327 327 327 328 330 331 331 329 325 319 313 304 291 281 277 272 267 264 263 263 263 264 265 266 267 270
322 321 320 319 318 319 318 316 314 313 311 310 312 313 313 311 311 311 313 315 315 315 317 318 318 317 317 317 317 319 320 321 322 323 324 324 324 325 325 324 324 325 325 326 326 327 327 326 325 324 325 325 326 327 327 328 327 328 328 328 328 328 329 330 331 333 332 330 327 322 315 305 294 287 281 274 268 265 262 262 262 263 263 264 266 268
320 319 318 317 317 317 317 315 314 313 312 312 313 315 314 312 313 314 316 317 316 316 317 318 317 317 318 319 321 321 321 322 322 323 324 324 324 325 325 325 326 326 326 326 326 326 325 324 324 325 326 328 329 329 328 328 328 328 329 329 330 330 331 331 332 333 332 330 328 324 316 307 299 294 287 277 271 266 263 263 263 262 262 263 266 267
318 318 317 316 316 316 316 315 315 314 313 314 315 315 314 313 314 314 315 316 316 317 318 318 318 319 320 321 321 320 321 322 324 324 324 325 326 326 326 326 326 326 326 326 326 325 324 325 326 327 328 329 330 329 329 329 329 330 330 331 331 332 333 333 333 333 331 330 329 326 318 307 303 299 290 281 274 268 265 264 264 264 263 263 265 266
317 317 317 316 315 315 314 314 314 313 313 314 315 315 314 315 316 316 316 317 318 319 318 318 319 320 320 320 320 320 321 322 323 324 325 326 327 327 326 326 326 325 325 324 324 324 325 326 327 328 328 329 330 330 329 330 330 331 332 332 333 334 334 335 334 334 332 329 329 328 321 310 306 303 294 285 277 270 267 266 265 265 264 264 265 266
317 317 316 315 314 314 313 313 313 313 314 315 316 317 316 317 318 317 316 318 319 319 319 320 320 320 320 320 320 321 321 322 324 326 326 327 327 326 324 324 324 323 322 322 323 324 325 326 327 327 328 329 330 330 330 331 332 333 334 334 335 335 335 336 336 335 333 330 329 330 325 314 309 308 299 289 281 273 269 268 268 267 266 266 268 267
315 315 314 313 313 313 313 314 314 314 315 317 318 317 317 317 317 316 316 318 320 321 320 320 319 320 321 321 322 323 323 324 325 326 326 326 325 324 322 322 322 322 322 323 324 325 326 326 327 328 328 329 329 330 331 333 334 335 336 336 336 336 336 336 337 336 335 331 329 329 327 318 311 310 304 294 285 277 272 271 271 271 270 269 270 268
314 313 313 313 313 313 314 315 315 315 317 318 318 317 317 317 317 317 318 320 321 321 320 320 321 322 323 324 324 325 325 325 325 326 325 325 324 322 322 322 323 324 324 325 325 325 326 327 327 328 329 329 331 331 333 334 335 336 338 338 337 337 337 337 337 338 336 333 330 329 328 321 313 310 307 300 290 281 277 275 275 275 273 272 271 268
314 314 314 314 314 315 315 316 316 317 318 318 317 317 318 318 318 319 321 321 322 322 322 322 323 324 324 324 324 325 325 324 324 324 324 323 322 322 323 323 324 324 325 324 324 324 326 327 327 329 330 331 331 332 332 334 335 336 338 339 339 339 338 338 338 339 337 334 331 329 327 323 315 310 308 304 296 287 282 281 281 279 277 273 270 266
315 315 315 315 316 317 317 317 317 317 319 319 318 319 320 321 321 321 323 323 323 323 323 323 323 323 323 323 323 323 323 322 322 322 322 322 322 323 323 323 323 323 323 322 322 323 325 326 327 329 330 330 330 331 332 333 334 335 337 338 339 339 340 339 339 339 339 336 332 329 327 324 318 312 308 305 299 292 288 286 285 283 279 274 268 264
317 317 316 317 318 318 318 318 318 319 321 321 321 322 323 323 323 323 323 323 324 323 323 323 323 322 322 322 321 321 321 321 321 322 322 323 323 323 323 323 322 322 321 320 321 323 324 326 328 329 330 330 330 331 331 332 333 334 335 336 337 338 339 340 340 340 339 337 334 330 328 325 321 315 310 306 300 295 292 291 289 285 280 275 269 265
318 318 318 318 319 319 320 320 321 322 324 324 324 324 324 324 324 323 322 323 323 322 322 322 322 321 321 321 321 321 321 322 323 323 323 323 322 321 321 321 321 320 319 320 321 323 324 326 328 329 330 330 330 330 330 330 331 332 333 334 335 336 337 339 340 340 340 338 335 332 329 326 322 317 312 307 302 298 296 294 289 284 281 278 273 268
319 319 319 320 321 322 322 323 324 324 325 325 324 323 323 322 322 322 322 322 322 322 321 321 321 320 320 321 322 323 323 323 323 323 322 321 320 320 320 320 320 319 320 321 323 324 326 327 329 330 331 330 330 330 329 329 329 330 331 331 332 333 335 337 338 338 338 339 337 334 330 327 323 318 313 307 303 300 297 293 288 285 283 281 275 273
320 321 321 322 323 324 324 324 324 324 323 322 321 320 321 321 321 321 321 322 322 322 322 321 321 321 322 323 324 324 323 323 322 321 320 319 318 318 319 320 320 319 320 322 323 324 326 327 328 329 330 330 330 329 329 328 328 328 329 329 330 331 332 334 336 336 337 338 338 336 332 329 325 319 314 309 304 301 297 292 290 289 286 282 280 281
322 323 323 324 324 324 323 322 322 321 320 320 320 320 321 321 321 321 321 321 322 322 323 323 323 324 324 324 324 323 322 321 320 319 318 317 317 318 319 319 319 319 321 322 324 325 326 327 328 329 329 329 329 329 329 328 328 327 327 327 328 329 330 331 333 334 335 337 338 337 334 331 327 321 314 310 305 299 294 293 294 294 290 287 287 287
324 324 324 324 324 323 322 321 321 321 321 321 321 321 321 320 321 322 323 323 324 324 325 325 324 324 323 322 321 321 320 318 318 317 317 317 317 318 319 319 319 320 321 323 325 326 327 327 328 328 329 329 329 329 329 328 328 327 326 326 326 326 328 329 330 331 333 335 337 338 335 332 329 323 314 310 305 297 294 295 294 293 295 295 293 287
325 324 325 325 324 323 321 321 321 321 321 321 321 321 322 323 324 324 324 324 324 324 323 323 323 322 321 320 319 318 317 317 317 317 317 317 318 318 319 319 320 321 323 325 326 326 327 327 328 328 329 329 329 329 329 328 328 327 326 325 324 324 325 326 327 329 331 333 335 337 336 333 331 325 316 310 307 301 295 294 290 288 294 299 295 284
326 325 325 324 324 323 323 322 322 322 322 322 323 324 324 325 325 325 324 323 322 322 321 320 320 319 318 317 316 316 316 316 317 317 318 318 318 318 319 319 321 322 324 325 326 326 326 327 327 328 329 329 329 329 329 329 328 327 326 324 323 322 322 323 325 327 328 330 332 335 335 333 330 325 318 312 309 304 298 292 285 282 288 295 293 282
326 325 325 326 326 325 324 323 323 323 324 325 325 325 325 325 324 323 322 321 321 320 319 319 318 317 316 315 315 315 316 317 318 318 318 318 318 319 320 321 322 323 324 324 324 325 325 326 327 328 328 329 329 329 329 329 328 327 326 324 323 321 320 320 322 323 325 327 329 331 333 332 328 322 318 314 310 305 299 291 283 278 280 285 286 280